Weather History for Cheyenne, WY

Change the Weather History Date:

Thursday, November 22, 2012

  Actual Average Record
Temperature  
Mean Temperature 34 °F 32 °F  
Max Temperature 46 °F 43 °F 67 °F (1878)
Min Temperature 22 °F 22 °F -7 °F (1941)
Degree Days  
Heating Degree Days 31 33  
Month to date heating degree days 535 616  
Since 1 July heating degree days 1337 1475  
Cooling Degree Days 0 0  
Month to date cooling degree days 0 0  
Year to date cooling degree days 568 348  
Moisture  
Dew Point 11 °F    
Average Humidity 37    
Maximum Humidity 54    
Minimum Humidity 20    
Precipitation  
Precipitation 0.00 in 0.02 in 0.25 in (2003)
Month to date precipitation 0.02 0.44  
Year to date precipitation 9.58 15.30  
Snow  
Snow 0.00 in 0.30 in 7.40 in (2003)
Month to date snowfall 0.4 5.6  
Since 1 July snowfall 10.6 11.9  
Snow Depth 0.00 in    
Sea Level Pressure  
Sea Level Pressure 30.13 in    
Wind  
Wind Speed 15 mph (NW)    
Max Wind Speed 33 mph    
Max Gust Speed 43 mph    
Visibility 10 miles    
Events      
T = Trace of Precipitation, MM = Missing Value Source: NWS Daily Summary

Daily Weather History Graph

Daily Weather History Graph

Search for Another Location

Airport:

Trip Planner

Search our weather history database for the weather conditions in past years. The results will help you decide how hot, cold, wet, or windy it might be!

Date:

Astronomy

Nov. 22, 2012 Rise Set
Actual Time 6:55 AM MST 4:34 PM MST
Civil Twilight 6:25 AM MST 5:04 PM MST
Nautical Twilight 5:52 AM MST 5:38 PM MST
Astronomical Twilight 5:19 AM MST 6:11 PM MST
Moon 1:24 PM MST (11/22) 1:15 AM MST (11/22)
Length of Visible Light 10h 39m
Length of Day
9h 38m
Waxing Gibbous, 72% of the Moon is Illuminated
Nov 22
Waxing Gibbous
Nov 28
Full
Dec 6
Last Quarter
Dec 13
New
Dec 19
First Quarter

Hourly Weather History & Observations

Time (MST) Temp. Windchill Dew Point Humidity Pressure Visibility Wind Dir Wind Speed Gust Speed Precip Events Conditions
12:53 AM 39.9 °F 34.5 °F 12.0 °F 32% 29.81 in 10.0 mi West 8.1 mph - N/A   Clear
1:53 AM 39.0 °F 31.8 °F 12.9 °F 34% 29.81 in 10.0 mi West 11.5 mph - N/A   Clear
2:53 AM 43.0 °F 36.0 °F 14.0 °F 31% 29.83 in 10.0 mi WNW 13.8 mph - N/A   Clear
3:53 AM 37.9 °F 32.1 °F 15.1 °F 39% 29.87 in 10.0 mi West 8.1 mph - N/A   Clear
4:53 AM 45.0 °F 40.6 °F 17.1 °F 33% 29.88 in 10.0 mi NW 8.1 mph - N/A   Clear
5:53 AM 41.0 °F 33.5 °F 25.0 °F 53% 29.95 in 10.0 mi NNW 13.8 mph - N/A   Clear
6:53 AM 41.0 °F 32.8 °F 25.0 °F 53% 29.98 in 10.0 mi NNW 16.1 mph 25.3 mph N/A   Clear
7:53 AM 37.0 °F 29.3 °F 23.0 °F 57% 30.05 in 10.0 mi North 11.5 mph 20.7 mph N/A   Clear
8:53 AM 43.0 °F 36.8 °F 21.9 °F 43% 30.02 in 10.0 mi NW 11.5 mph 20.7 mph N/A   Clear
9:53 AM 45.0 °F 37.6 °F 17.1 °F 33% 30.06 in 10.0 mi NNW 17.3 mph 29.9 mph N/A   Clear
10:53 AM 46.0 °F 38.5 °F 10.9 °F 24% 30.04 in 10.0 mi NNW 19.6 mph 27.6 mph N/A   Clear
11:53 AM 46.0 °F 38.3 °F 10.9 °F 24% 30.07 in 10.0 mi NNW 20.7 mph 27.6 mph N/A   Clear
12:53 PM 45.0 °F 35.6 °F 7.0 °F 21% 30.10 in 10.0 mi NNW 27.6 mph 39.1 mph N/A   Clear
1:53 PM 45.0 °F 36.0 °F 7.0 °F 21% 30.12 in 10.0 mi NW 25.3 mph 40.3 mph N/A   Clear
2:53 PM 42.1 °F 31.9 °F 5.0 °F 22% 30.14 in 10.0 mi NW 26.5 mph 42.6 mph N/A   Clear
3:53 PM 41.0 °F 31.4 °F 6.1 °F 24% 30.21 in 10.0 mi NNW 21.9 mph 28.8 mph N/A   Clear
4:53 PM 37.0 °F 31.6 °F 5.0 °F 26% 30.25 in 10.0 mi North 6.9 mph - N/A   Clear
5:53 PM 36.0 °F 27.1 °F 6.1 °F 29% 30.29 in 10.0 mi NNW 13.8 mph - N/A   Clear
6:53 PM 34.0 °F 23.0 °F 7.0 °F 32% 30.32 in 10.0 mi NNW 18.4 mph 24.2 mph N/A   Clear
7:53 PM 32.0 °F 22.5 °F 7.0 °F 35% 30.39 in 10.0 mi North 12.7 mph 23.0 mph N/A   Clear
8:53 PM 28.0 °F 17.0 °F 6.1 °F 39% 30.42 in 10.0 mi North 13.8 mph - N/A   Clear
9:53 PM 26.1 °F 17.6 °F 6.1 °F 43% 30.45 in 10.0 mi WNW 8.1 mph - N/A   Clear
10:53 PM 23.0 °F 17.0 °F 6.1 °F 48% 30.50 in 10.0 mi SSW 4.6 mph - N/A   Clear
11:53 PM 24.1 °F 15.2 °F 7.0 °F 48% 30.50 in 10.0 mi NNW 8.1 mph - N/A   Clear